Flag for Guatemala

Past Weather in Municipio de Panajachel, Guatemala — Yesterday and Last 2 Weeks

Now
61 °F

Passing clouds.


Feels Like: 61 °F
Forecast: 72 / 61 °F
Wind: 7 mph from North

Location: Guatemala Aeropuertola Aurora

Current Time: Oct 22, 2019 at 3:59:40 am

Latest Report: Oct 22, 2019 at 3:00 am


Visibility: N/A

Pressure: 30.24 "Hg

Humidity: 100%

Dew Point: 61 °F

Location of Municipio de PanajachelLocation

Past Weather in Municipio de Panajachel — Graph

°F

Municipio de Panajachel Temperature Yesterday

Maximum temperature yesterday: 77 °F (at 12:00 pm)
Minimum temperature yesterday: 61 °F (at 6:00 am)
Average temperature yesterday: 68 °F

High & Low Weather Summary for the Past Weeks

 TemperatureHumidityPressure
High81 °F (Oct 18, 12:00 pm)100% (Oct 7, 8:00 pm)30.33 "Hg (Oct 7, 8:00 pm)
Low59 °F (Oct 17, 4:00 am)51% (Oct 11, 1:00 pm)30.12 "Hg (Oct 7, 2:00 pm)
Average67 °F85%30.22 "Hg
* Reported Oct 7 2:00 am — Oct 22 2:00 am, Municipio de Panajachel. Weather by CustomWeather, © 2019

Note: Actual official high and low records may vary slightly from our data, if they occured in-between our weather recording intervals... More about our weather records

Advertising

Municipio de Panajachel Weather History for the Previous 24 Hours

Scroll right to see more
 ConditionsComfort  
Time TempWeatherWind HumidityBarometerVisibility
2:00 am
Tue, Oct 22
61 °FPartly cloudy.5 mph94%30.24 "HgN/A
1:00 am61 °FLight rain. Partly cloudy.No wind100%30.27 "HgN/A
12:00 am61 °FPartly cloudy.No wind94%30.30 "Hg5 mi
11:00 pm
Mon, Oct 21
61 °FThunderstorms. Partly cloudy.7 mph94%30.30 "Hg4 mi
10:00 pm61 °FStrong thunderstorms. Overcast.9 mph100%30.33 "Hg1 mi
9:00 pm66 °FPassing clouds.7 mph88%30.27 "Hg5 mi
8:00 pm66 °FPassing clouds.7 mph88%30.27 "Hg5 mi
7:00 pm66 °FPassing clouds.7 mph88%30.24 "HgN/A
6:00 pm68 °FPassing clouds.7 mph83%30.21 "HgN/A
5:00 pm72 °FScattered clouds.9 mph73%30.18 "HgN/A
4:00 pm73 °FScattered clouds.9 mph74%30.18 "HgN/A
3:00 pm77 °FRain. Scattered clouds.12 mph65%30.18 "HgN/A
2:00 pm77 °FScattered clouds.9 mph61%30.21 "HgN/A
1:00 pm75 °FPartly sunny.9 mph69%30.24 "HgN/A
12:00 pm77 °FScattered clouds.7 mph61%30.27 "HgN/A
11:00 am73 °FPartly sunny.9 mph69%30.30 "Hg5 mi
10:00 am73 °FScattered clouds.9 mph74%30.30 "Hg4 mi
9:00 am68 °FFog.7 mph88%30.30 "Hg3 mi
8:00 am64 °FFog.No wind94%30.30 "Hg2 mi
7:00 am63 °FRain. Fog.2 mph94%30.27 "Hg2 mi
6:00 am61 °FFog.N/A100%30.24 "HgN/A
5:00 am63 °FFog.3 mph94%30.21 "Hg3 mi
4:00 am63 °FFog.2 mph100%30.21 "Hg3 mi
3:00 am64 °FFog.2 mph94%30.21 "Hg3 mi
Weather by CustomWeather, © 2019

See weather overview